Starlink 6037

operational
NORAD ID: 56461 Int'l Des: 2023-064 Owner: SPXS Country: US Constellation: starlink
LEOCIRCULAR

Starlink 6037について

説明を読み込み中...

リアルタイム位置

3D地球を読み込み中...

次回通過

高度履歴

Altitude vs Time

uPlot chart will show altitude changes over time

軌道要素

1 56461U 23064P 26035.80163220 -.00001738 00000-0 -13790-3 0 9999
2 56461 69.9981 227.2187 0002598 269.2208 90.8654 14.98328908150323
Epoch: Feb 4, 2026 • Age: 7 hours

現在のステータス

高度 583.1 km
速度 7.57 km/s
衛星直下点 58.90°N, 158°W
打ち上げ日 May 10, 2023
運用期間 2.7 years
タイプ internet

技術仕様

分類 Payload
質量 305.00 kg
乾燥質量 290.00 kg
総質量 305.00 kg
長さ 0.20 m
直径 2.80 m
スパン 9.00 m
形状 Box + pan
製造者 SPXS
バスタイプ Starlink
フェーズステータス In Orbit
所有者/国 SPXS/US

大規模コンステレーション

Loading constellations...